Baltimore, MD

1:25 PM EDT on July 24, 2016 (GMT -0400)
Baltimore-Washington International

Weather History for KBWI - July, 2014

Change the Weather History Date:

Monday, July 7, 2014

  Actual Average Record
Temperature  
Mean Temperature 82 °F 77 °F  
Max Temperature 91 °F 87 °F 104 °F (2012)
Min Temperature 72 °F 67 °F 53 °F (1980)
Degree Days  
Heating Degree Days 0 0  
Month to date heating degree days 0 0  
Since 1 June heating degree days 2 15  
Since 1 July heating degree days 0 0  
Cooling Degree Days 17 12  
Month to date cooling degree days 85 82  
Year to date cooling degree days 426 404  
Since 1 June cooling degree days 341 320  
Growing Degree Days 32 (Base 50)    
Moisture  
Dew Point 63 °F    
Average Humidity 53    
Maximum Humidity 68    
Minimum Humidity 38    
Precipitation  
Precipitation 0.00 in 0.12 in 2.62 in (1905)
Month to date precipitation 0.96 0.84  
Year to date precipitation 28.53 21.33  
Snow  
Snow 0.00 in 0.00 in - ()
Month to date snowfall 0.0 0.0  
Since 1 July snowfall 0.0 0.0  
Snow Depth 0.00 in    
Sea Level Pressure  
Sea Level Pressure 29.87 in    
Wind  
Wind Speed 8 mph (SW)    
Max Wind Speed 17 mph    
Max Gust Speed 23 mph    
Visibility 10 miles    
Events      
T = Trace of Precipitation, MM = Missing Value Source: NWS Daily Summary

Daily Weather History Graph

Daily Weather History Graph

Search for Another Location

Airport or City:

Trip Planner

Search our weather history database for the weather conditions in past years. The results will help you decide how hot, cold, wet, or windy it might be!

Date:

Astronomy

Jul. 07, 2014 Rise Set
Actual Time 5:47 AM EDT 8:35 PM EDT
Civil Twilight 5:15 AM EDT 9:07 PM EDT
Nautical Twilight 4:35 AM EDT 9:47 PM EDT
Astronomical Twilight 3:50 AM EDT 10:32 PM EDT
Moon 3:37 PM EDT (7/7) 1:38 AM EDT (7/7)
Length of Visible Light 15h 51m
Length of Day
14h 48m
Waxing Gibbous, 72% of the Moon is Illuminated
Jul 7
Waxing Gibbous
Jul 12
Full
Jul 18
Last Quarter
Jul 26
New
Aug 3
First Quarter

Hourly Weather History & Observations

Time (EDT) Temp. Heat Index Dew Point Humidity Pressure Visibility Wind Dir Wind Speed Gust Speed Precip Events Conditions
12:54 AM 75.0 °F - 63.0 °F 66% 29.94 in 10.0 mi SW 4.6 mph - N/A   Mostly Cloudy
1:54 AM 73.9 °F - 63.0 °F 68% 29.92 in 10.0 mi SSW 5.8 mph - N/A   Mostly Cloudy
2:54 AM 73.9 °F - 62.1 °F 66% 29.91 in 10.0 mi SW 4.6 mph - N/A   Mostly Cloudy
3:54 AM 73.9 °F - 62.1 °F 66% 29.90 in 10.0 mi SW 5.8 mph - N/A   Mostly Cloudy
4:54 AM 73.0 °F - 62.1 °F 68% 29.90 in 10.0 mi SSW 4.6 mph - N/A   Mostly Cloudy
5:54 AM 73.0 °F - 62.1 °F 68% 29.91 in 10.0 mi SW 4.6 mph - N/A   Mostly Cloudy
6:54 AM 73.0 °F - 62.1 °F 68% 29.91 in 10.0 mi SW 5.8 mph - N/A   Mostly Cloudy
7:54 AM 73.9 °F - 63.0 °F 68% 29.92 in 10.0 mi SW 8.1 mph - N/A   Scattered Clouds
8:54 AM 78.1 °F - 63.0 °F 60% 29.92 in 10.0 mi SW 5.8 mph - N/A   Mostly Cloudy
9:54 AM 81.0 °F 82.5 °F 64.0 °F 56% 29.91 in 10.0 mi SW 10.4 mph - N/A   Mostly Cloudy
10:54 AM 84.0 °F 84.9 °F 63.0 °F 49% 29.90 in 10.0 mi SW 11.5 mph - N/A   Mostly Cloudy
11:54 AM 87.1 °F 87.8 °F 63.0 °F 44% 29.89 in 10.0 mi SW 10.4 mph - N/A   Scattered Clouds
12:54 PM 89.1 °F 90.0 °F 63.0 °F 42% 29.87 in 10.0 mi SW 9.2 mph 17.3 mph N/A   Scattered Clouds
1:54 PM 90.0 °F 90.6 °F 63.0 °F 40% 29.85 in 10.0 mi SW 11.5 mph - N/A   Scattered Clouds
2:54 PM 90.0 °F 90.6 °F 63.0 °F 40% 29.84 in 10.0 mi SSW 12.7 mph - N/A   Scattered Clouds
3:54 PM 91.0 °F 91.9 °F 63.0 °F 39% 29.82 in 10.0 mi SSW 10.4 mph 21.9 mph N/A   Scattered Clouds
4:54 PM 90.0 °F 90.3 °F 62.1 °F 39% 29.81 in 10.0 mi SSW 13.8 mph 21.9 mph N/A   Scattered Clouds
5:54 PM 90.0 °F 90.6 °F 63.0 °F 40% 29.80 in 10.0 mi SSW 11.5 mph 19.6 mph N/A   Partly Cloudy
6:54 PM 89.1 °F 90.0 °F 63.0 °F 42% 29.79 in 10.0 mi SSW 10.4 mph 18.4 mph N/A   Clear
7:54 PM 87.1 °F 87.8 °F 63.0 °F 44% 29.80 in 10.0 mi SW 8.1 mph - N/A   Partly Cloudy
8:54 PM 84.9 °F 85.4 °F 62.1 °F 46% 29.81 in 10.0 mi SSW 6.9 mph - N/A   Scattered Clouds
9:54 PM 84.0 °F 84.5 °F 62.1 °F 47% 29.83 in 10.0 mi SSW 4.6 mph - N/A   Partly Cloudy
10:54 PM 82.0 °F 83.1 °F 63.0 °F 52% 29.85 in 10.0 mi SSW 6.9 mph - N/A   Partly Cloudy
11:54 PM 82.0 °F 83.1 °F 63.0 °F 52% 29.84 in 10.0 mi SW 8.1 mph - N/A   Scattered Clouds